This demonstration page uses our WeatherBlox Daily Observations layout. Learn more.

Left ArrowRight Arrow

Hourly Observations for April 27, 2015

Temp ( °F °C ) Dew Point ( °F °C ) Humidity (%) Winds ( mph kmh ) Pressure ( in mb ) Visibility ( mi km ) Precip ( " mm )
12:53 am 00:53 Clear 31 -0.6 27 -2.8 85 85 WSW 3 6 30.31 1027 10 16 0.00 0.00
1:53 am 01:53 Clear 28 -2.2 25 -3.9 88 88 SW 6 9 30.31 1027 10 16 0.00 0.00
2:53 am 02:53 Clear 28 -2.2 24 -4.4 85 85 SSW 5 7 30.31 1027 10 16 0.00 0.00
3:53 am 03:53 Clear 28 -2.2 25 -3.9 88 88 SW 5 7 30.32 1027 10 16 0.00 0.00
4:53 am 04:53 Clear 26 -3.3 25 -3.9 96 96 WSW 3 6 30.33 1027 10 16 0.00 0.00
5:53 am 05:53 Clear 27 -2.8 25 -3.9 92 92 W 3 6 30.33 1027 10 16 0.00 0.00
6:53 am 06:53 Sunny 27 -2.8 25 -3.9 92 92 Calm 30.35 1028 10 16 0.00 0.00
7:53 am 07:53 Sunny 33 0.6 29 -1.7 85 85 Calm 30.35 1028 10 16 0.00 0.00
8:53 am 08:53 Sunny 41 5 32 0 70 70 Calm 30.34 1028 10 16 0.00 0.00
9:53 am 09:53 Sunny 51 10.6 33 0.6 50 50 SW 15 24 30.34 1027 10 16 0.00 0.00
10:53 am 10:53 Sunny 55 12.8 32 0 42 42 SW 17 28 30.31 1026 10 16 0.00 0.00
11:53 am 11:53 Sunny 57 13.9 31 -0.6 37 37 WSW 14 22 30.29 1026 10 16 0.00 0.00
12:53 pm 12:53 Sunny 59 15 30 -1.1 33 33 SW 9 15 30.29 1026 10 16 0.00 0.00
1:53 pm 13:53 Sunny 61 16.1 29 -1.7 30 30 SSW 13 20 30.28 1025 10 16 0.00 0.00
2:53 pm 14:53 Sunny 62 16.7 31 -0.6 31 31 WSW 9 15 30.27 1025 10 16 0.00 0.00
3:53 pm 15:53 Mostly Sunny 64 17.8 32 0 30 30 SW 13 20 30.25 1024 10 16 0.00 0.00
4:53 pm 16:53 Sunny 64 17.8 32 0 30 30 SSW 10 17 30.24 1024 10 16 0.00 0.00
5:53 pm 17:53 Sunny 64 17.8 30 -1.1 28 28 SSW 16 26 30.22 1023 10 16 0.00 0.00
6:53 pm 18:53 Sunny 63 17.2 30 -1.1 29 29 SSW 12 19 30.22 1023 10 16 0.00 0.00
7:53 pm 19:53 Sunny 59 15 32 0 36 36 S 9 15 30.21 1023 10 16 0.00 0.00
8:53 pm 20:53 Clear 50 10 33 0.6 52 52 SSE 10 17 30.22 1023 10 16 0.00 0.00
9:53 pm 21:53 Clear 47 8.3 32 0 56 56 SSE 9 15 30.22 1023 10 16 0.00 0.00
10:53 pm 22:53 Clear 48 8.9 32 0 54 54 SSE 10 17 30.20 1023 10 16 0.00 0.00
11:53 pm 23:53 Clear 46 7.8 31 -0.6 56 56 Calm 30.19 1022 10 16 0.00 0.00

Powered by AerisWeather